Regional Weather Roundup
Issued by NWS

Home | Current Version | Previous Version | Text Only | Print | Product List | Glossary Off
Versions: 1 2 3 4 5 6 7 8 9 10 11 12 13 14 15 16 17 18 19 20 21 22 23 24 25 26 27 28 29 30 31 32 33 34 35 36 37 38 39 40 41 42 43 44 45 46 47 48 49 50

000
ASUS43 KIND 271259
RWRIN

WEATHER ROUNDUP FOR INDIANA
NATIONAL WEATHER SERVICE INDIANAPOLIS IN
900 AM EDT FRI MAR 27 2015

NOTE: "FAIR" INDICATES FEW OR NO CLOUDS BELOW 12,000 FEET WITH NO
SIGNIFICANT WEATHER AND/OR OBSTRUCTIONS TO VISIBILITY.

* - STATION DOES NOT REPORT WEATHER SUCH AS PRECIPITATION OR FOG.

+ - STATION NOT QUALITY CONTROLLED BY THE NATIONAL WEATHER SERVICE.
    USE DATA WITH CAUTION...ESPECIALLY DEWPOINT AND RELATIVE
    HUMIDITY OBSERVATIONS.

INZ001>003-010>013-019-020-271400-
NORTHWEST INDIANA

CITY           SKY/WX    TMP DP  RH WIND       PRES   REMARKS
GARY /AIRPORT/ CLOUDY    28  14  54 N16G30    30.13R WCI  17
VALPARAISO     CLOUDY    25  17  72 N12G18    30.10R WCI  14

$$

LMZ046-743>745-271400-
SOUTHERN LAKE MICHIGAN

STATION/POSITION TIME  TEMP WIND        PRES
                       AIR  DIR/SP/G
                 (UTC) (F)  (DEG/KT/KT) (MB)
BURNS HARBOR     1200   27   10/ 19/ 24 1020.0R
MICHIGAN CITY    1200   26  360/ 26/ 29   N/A

$$

INZ004-005-014>016-021>024-271400-
NORTH CENTRAL INDIANA

CITY           SKY/WX    TMP DP  RH WIND       PRES   REMARKS
ELKHART        MOSUNNY   25  10  54 N5        30.08S WCI  19
GOSHEN         SUNNY     24  12  60 N13       30.06R WCI  12
SOUTH BEND     FLURRIES  24  16  71 N13       30.08S WCI  12

$$

INZ006>009-017-018-025>027-271400-
NORTHEAST INDIANA

CITY           SKY/WX    TMP DP  RH WIND       PRES   REMARKS
ANGOLA *+      SUNNY     21  12  68 N10       30.02S WCI  10
FORT WAYNE     MOSUNNY   26  14  60 N20G25    30.05R WCI  12

$$

INZ028-029-035-036-043>045-051>053-271400-
WEST CENTRAL INDIANA

CITY           SKY/WX    TMP DP  RH WIND       PRES   REMARKS
CRAWFORDSVL +  SUNNY     28  19  67 N10       30.06R WCI  19
GREENCASTLE +  PTSUNNY   30  21  69 N8        30.05R WCI  23
LAFAYETTE      MOSUNNY   28  21  75 N8        30.08R WCI  20
TERRE HAUTE    CLOUDY    32  26  78 N7        30.07R WCI  26

$$

INZ030>032-037>040-046>048-054>057-064-065-271400-
CENTRAL INDIANA

CITY           SKY/WX    TMP DP  RH WIND       PRES   REMARKS
ANDERSON       PTSUNNY   28  23  80 N12G17    30.03  WCI  18
COLUMBUS       PTSUNNY   30  25  80 N8        30.04R WCI  23
GREENWOOD *+   PTSUNNY   32  21  64 N13       30.03S WCI  22
INDIANAPOLIS   PTSUNNY   31  24  75 N10       30.02S WCI  22
-EAGLE CREEK   MOSUNNY   31  24  75 N8        30.03R WCI  23
KOKOMO *+        N/A     28  19  69 N14       30.05R WCI  17
MT COMFORT *+  PTSUNNY   30  19  64 N16       30.03R WCI  19
SHELBYVILLE    CLOUDY    33  25  72 N6        30.02R WCI  28

$$

INZ033-034-041-042-049-050-058-059-271400-
EAST CENTRAL INDIANA

CITY           SKY/WX    TMP DP  RH WIND       PRES   REMARKS
MUNCIE         PTSUNNY   30  24  78 N13       30.02R WCI  20

$$

INZ060-061-067>069-081>083-085>088-271400-
SOUTHWEST INDIANA

CITY           SKY/WX    TMP DP  RH WIND       PRES   REMARKS
EVANSVILLE     CLOUDY    37  29  72 N7        30.05R
HUNTINGBURG *+ MOSUNNY   34  27  75 N8        30.04R WCI  27

$$

INZ062-063-066-070>080-084-089>092-271400-
SOUTH CENTRAL AND SOUTHEAST INDIANA

CITY           SKY/WX    TMP DP  RH WIND       PRES   REMARKS
BLOOMINGTON    PTSUNNY   32  26  78 N8        30.03R WCI  25
SEYMOUR +      SUNNY     34  27  75 N12       30.03R WCI  25

$$



USA.gov is the U.S. government's official web portal to all federal, state and local government web resources and services.